TimeCDT,TemperatureF,Dew PointF,Humidity,Sea Level PressureIn,VisibilityMPH,Wind Direction,Wind SpeedMPH,Gust SpeedMPH,PrecipitationIn,Events,Conditions,WindDirDegrees,DateUTC
12:28 AM,71.6,69.8,94,29.89,10.0,SSE,6.9,-,N/A,,Mostly Cloudy,160,2012-10-25 05:28:00
12:53 AM,72.0,69.1,91,29.84,10.0,SSE,8.1,-,N/A,,Overcast,160,2012-10-25 05:53:00
1:53 AM,72.0,69.1,91,29.83,10.0,SSE,12.7,-,N/A,,Overcast,160,2012-10-25 06:53:00
2:53 AM,72.0,70.0,93,29.82,10.0,SSE,10.4,-,N/A,,Overcast,150,2012-10-25 07:53:00
3:53 AM,71.1,69.1,93,29.80,10.0,SSE,8.1,-,N/A,,Overcast,160,2012-10-25 08:53:00
4:01 AM,71.6,69.8,94,29.85,10.0,SSE,8.1,-,N/A,,Overcast,160,2012-10-25 09:01:00
4:45 AM,71.6,69.8,94,29.85,10.0,South,10.4,-,N/A,,Overcast,180,2012-10-25 09:45:00
4:53 AM,71.1,70.0,96,29.80,10.0,South,6.9,-,N/A,,Overcast,170,2012-10-25 09:53:00
5:53 AM,71.1,70.0,96,29.81,10.0,South,8.1,-,N/A,,Overcast,180,2012-10-25 10:53:00
6:53 AM,71.1,70.0,96,29.81,10.0,South,10.4,-,N/A,,Overcast,180,2012-10-25 11:53:00
7:53 AM,71.6,69.8,94,29.87,10.0,South,5.8,-,N/A,,Overcast,190,2012-10-25 12:53:00
8:53 AM,72.0,70.0,93,29.85,10.0,SSW,9.2,-,N/A,,Overcast,200,2012-10-25 13:53:00
9:36 AM,73.4,69.8,88,29.91,10.0,South,12.7,-,N/A,,Overcast,190,2012-10-25 14:36:00
9:53 AM,73.9,70.0,87,29.87,10.0,SSW,9.2,-,N/A,,Mostly Cloudy,200,2012-10-25 14:53:00
9:59 AM,73.4,69.8,88,29.92,10.0,South,11.5,18.4,N/A,,Mostly Cloudy,180,2012-10-25 14:59:00
10:22 AM,75.2,69.8,83,29.92,10.0,South,9.2,-,N/A,,Scattered Clouds,180,2012-10-25 15:22:00
10:53 AM,77.0,68.0,74,29.87,10.0,South,9.2,-,N/A,,Scattered Clouds,190,2012-10-25 15:53:00
11:53 AM,81.0,66.9,62,29.86,10.0,South,8.1,-,N/A,,Scattered Clouds,180,2012-10-25 16:53:00
12:53 PM,82.9,68.0,60,29.83,10.0,South,5.8,-,N/A,,Scattered Clouds,190,2012-10-25 17:53:00
1:53 PM,84.0,69.1,61,29.81,10.0,South,9.2,-,N/A,,Mostly Cloudy,170,2012-10-25 18:53:00
2:53 PM,86.0,70.0,59,29.79,10.0,South,6.9,-,N/A,,Mostly Cloudy,170,2012-10-25 19:53:00
3:53 PM,86.0,68.0,55,29.79,10.0,Calm,Calm,-,N/A,,Scattered Clouds,0,2012-10-25 20:53:00
4:53 PM,84.9,68.0,57,29.79,10.0,ESE,4.6,-,N/A,,Scattered Clouds,110,2012-10-25 21:53:00
5:53 PM,82.9,66.0,56,29.79,10.0,ESE,3.5,-,N/A,,Scattered Clouds,120,2012-10-25 22:53:00
6:53 PM,80.1,66.0,62,29.80,10.0,East,4.6,-,N/A,,Partly Cloudy,90,2012-10-25 23:53:00
7:53 PM,78.1,66.0,66,29.83,10.0,East,3.5,-,N/A,,Scattered Clouds,90,2012-10-26 00:53:00
8:53 PM,79.0,66.9,66,29.84,10.0,East,4.6,-,N/A,,Mostly Cloudy,90,2012-10-26 01:53:00
9:53 PM,77.0,68.0,74,29.86,10.0,ESE,8.1,-,N/A,,Partly Cloudy,120,2012-10-26 02:53:00
10:53 PM,75.2,69.8,83,29.94,10.0,East,4.6,-,N/A,,Scattered Clouds,90,2012-10-26 03:53:00
11:13 PM,75.2,64.4,69,29.95,10.0,NNW,15.0,19.6,N/A,,Mostly Cloudy,340,2012-10-26 04:13:00
11:21 PM,73.4,60.8,65,29.96,10.0,North,12.7,-,N/A,,Overcast,10,2012-10-26 04:21:00
11:53 PM,68.0,59.0,73,29.94,10.0,NNE,13.8,24.2,0.00,Rain,Light Rain,20,2012-10-26 04:53:00